,,Stat6,,Stat2,,Stat8,,Stat9,,Stat10,,Wind1,,Wind1,
time,status,PA1M_AVG,status,PR1M_SUM,status,RH1M_AVG,status,SR1M_AVG,status,TA1M_AVG,status,W1dAve1m,status,W1sAve1m,
2009-02-20, 00:00:00,VALID,917.007,VALID,0,VALID,100,VALID,0.0169808,VALID,19.3746,VALID,70,VALID,0,
2009-02-20, 00:01:00,VALID,917.011,VALID,0,VALID,100,VALID,0,VALID,19.3586,VALID,86,VALID,0,
2009-02-20, 00:02:00,VALID,917.02,VALID,0,VALID,100,VALID,0,VALID,19.3522,VALID,98,VALID,0.0576637,
2009-02-20, 00:03:00,VALID,917.039,VALID,0,VALID,100,VALID,0,VALID,19.3389,VALID,120,VALID,0,
2009-02-20, 00:04:00,VALID,917.043,VALID,0,VALID,100,VALID,0,VALID,19.3424,VALID,124,VALID,0,
2009-02-20, 00:05:00,VALID,917.036,VALID,0,VALID,100,VALID,0.0339617,VALID,19.3392,VALID,124,VALID,0,
2009-02-20, 00:06:00,VALID,917.039,VALID,0,VALID,100,VALID,0,VALID,19.3294,VALID,119,VALID,0,
2009-02-20, 00:07:00,VALID,917.02,VALID,0,VALID,100,VALID,0.0169808,VALID,19.3292,VALID,108,VALID,0,
2009-02-20, 00:08:00,VALID,917.008,VALID,0,VALID,100,VALID,0.0169808,VALID,19.3424,VALID,99,VALID,0,
2009-02-20, 00:09:00,VALID,916.971,VALID,0,VALID,100,VALID,0.0339617,VALID,19.3552,VALID,116,VALID,0,
2009-02-20, 00:10:00,VALID,916.96,VALID,0,VALID,100,VALID,0.0169808,VALID,19.3452,VALID,131,VALID,0,
2009-02-20, 00:11:00,VALID,916.919,VALID,0,VALID,100,VALID,0,VALID,19.3489,VALID,142,VALID,0,
2009-02-20, 00:12:00,VALID,916.886,VALID,0,VALID,100,VALID,0,VALID,19.3454,VALID,141,VALID,0,
2009-02-20, 00:13:00,VALID,916.863,VALID,0,VALID,100,VALID,0,VALID,19.3487,VALID,133,VALID,0,
2009-02-20, 00:14:00,VALID,916.852,VALID,0,VALID,100,VALID,0,VALID,19.3457,VALID,144,VALID,0,
2009-02-20, 00:15:00,VALID,916.835,VALID,0,VALID,100,VALID,0.0169808,VALID,19.3586,VALID,151,VALID,0,
2009-02-20, 00:16:00,VALID,916.835,VALID,0,VALID,100,VALID,0,VALID,19.3716,VALID,146,VALID,0,
2009-02-20, 00:17:00,VALID,916.832,VALID,0,VALID,100,VALID,-0.0169808,VALID,19.3848,VALID,140,VALID,0.0399926,
2009-02-20, 00:18:00,VALID,916.841,VALID,0,VALID,100,VALID,0,VALID,19.3814,VALID,131,VALID,0,
2009-02-20, 00:19:00,VALID,916.837,VALID,0,VALID,100,VALID,0,VALID,19.3878,VALID,118,VALID,0,
2009-02-20, 00:20:00,VALID,916.843,VALID,0,VALID,100,VALID,-0.0169808,VALID,19.3814,VALID,109,VALID,0,
2009-02-20, 00:21:00,VALID,916.84,VALID,0,VALID,100,VALID,-0.0509425,VALID,19.3846,VALID,106,VALID,0.0605469,
2009-02-20, 00:22:00,VALID,916.816,VALID,0,VALID,100,VALID,0,VALID,19.3816,VALID,101,VALID,0.0012429,
2009-02-20, 00:23:00,VALID,916.813,VALID,0,VALID,100,VALID,-0.0169808,VALID,19.3776,VALID,101,VALID,0,
2009-02-20, 00:24:00,VALID,916.812,VALID,0,VALID,100,VALID,-0.0339617,VALID,19.3948,VALID,101,VALID,0,
2009-02-20, 00:25:00,VALID,916.796,VALID,0,VALID,100,VALID,0,VALID,19.3973,VALID,101,VALID,0,
2009-02-20, 00:26:00,VALID,916.782,VALID,0,VALID,100,VALID,0.0169808,VALID,19.4138,VALID,109,VALID,0,
2009-02-20, 00:27:00,VALID,916.769,VALID,0,VALID,100,VALID,0,VALID,19.4135,VALID,126,VALID,0,
2009-02-20, 00:28:00,VALID,916.769,VALID,0,VALID,100,VALID,0,VALID,19.414,VALID,132,VALID,0,
2009-02-20, 00:29:00,VALID,916.737,VALID,0,VALID,100,VALID,0,VALID,19.4071,VALID,132,VALID,0,
2009-02-20, 00:30:00,VALID,916.715,VALID,0,VALID,100,VALID,0,VALID,19.4138,VALID,133,VALID,0,
2009-02-20, 00:31:00,VALID,916.692,VALID,0,VALID,100,VALID,0,VALID,19.4168,VALID,144,VALID,0.0390625,
2009-02-20, 00:32:00,VALID,916.658,VALID,0,VALID,100,VALID,0,VALID,19.4133,VALID,150,VALID,0.00243056,
2009-02-20, 00:33:00,VALID,916.662,VALID,0,VALID,100,VALID,0,VALID,19.4233,VALID,164,VALID,0.472479,
2009-02-20, 00:34:00,VALID,916.638,VALID,0,VALID,100,VALID,-0.0169808,VALID,19.4238,VALID,155,VALID,0.224085,
2009-02-20, 00:35:00,VALID,916.621,VALID,0,VALID,100,VALID,-0.0339617,VALID,19.4108,VALID,157,VALID,0.4246,
2009-02-20, 00:36:00,VALID,916.598,VALID,0,VALID,100,VALID,-0.0339617,VALID,19.417,VALID,144,VALID,0.00859375,
2009-02-20, 00:37:00,VALID,916.586,VALID,0,VALID,100,VALID,-0.0169808,VALID,19.4175,VALID,157,VALID,0.148793,
2009-02-20, 00:38:00,VALID,916.578,VALID,0,VALID,100,VALID,-0.0339617,VALID,19.3946,VALID,158,VALID,0.268924,
2009-02-20, 00:39:00,VALID,916.581,VALID,0,VALID,100,VALID,-0.0169808,VALID,19.3948,VALID,154,VALID,0.249628,
2009-02-20, 00:40:00,VALID,916.574,VALID,0,VALID,100,VALID,-0.0339617,VALID,19.3749,VALID,142,VALID,0.0827753,
2009-02-20, 00:41:00,VALID,916.575,VALID,0,VALID,100,VALID,-0.0169808,VALID,19.3619,VALID,148,VALID,0.22574,
2009-02-20, 00:42:00,VALID,916.562,VALID,0,VALID,100,VALID,0,VALID,19.3656,VALID,127,VALID,0.00571646,
2009-02-20, 00:43:00,VALID,916.547,VALID,0,VALID,100,VALID,-0.0339617,VALID,19.3584,VALID,115,VALID,0,
2009-02-20, 00:44:00,VALID,916.543,VALID,0,VALID,100,VALID,0.0169808,VALID,19.3549,VALID,113,VALID,0,
2009-02-20, 00:45:00,VALID,916.544,VALID,0,VALID,100,VALID,-0.0169808,VALID,19.3586,VALID,104,VALID,0,
2009-02-20, 00:46:00,VALID,916.543,VALID,0,VALID,100,VALID,-0.0509425,VALID,19.3716,VALID,66,VALID,0.108648,
2009-02-20, 00:47:00,VALID,916.544,VALID,0,VALID,100,VALID,-0.0169808,VALID,19.3684,VALID,32,VALID,0,
2009-02-20, 00:48:00,VALID,916.544,VALID,0,VALID,100,VALID,0.0169808,VALID,19.3714,VALID,11,VALID,0.0012718,
2009-02-20, 00:49:00,VALID,916.544,VALID,0,VALID,100,VALID,0.0339617,VALID,19.3422,VALID,17,VALID,0,
2009-02-20, 00:50:00,VALID,916.536,VALID,0,VALID,100,VALID,0.0169808,VALID,19.323,VALID,16,VALID,0.304501,
2009-02-20, 00:51:00,VALID,916.521,VALID,0,VALID,100,VALID,0,VALID,19.2905,VALID,17,VALID,0.841025,
2009-02-20, 00:52:00,VALID,916.515,VALID,0,VALID,100,VALID,0,VALID,19.2873,VALID,30,VALID,0.146484,
2009-02-20, 00:53:00,VALID,916.526,VALID,0,VALID,100,VALID,0,VALID,19.2808,VALID,23,VALID,0.158288,
2009-02-20, 00:54:00,VALID,916.518,VALID,0,VALID,100,VALID,-0.0169808,VALID,19.2838,VALID,29,VALID,0.138765,
2009-02-20, 00:55:00,VALID,916.499,VALID,0,VALID,100,VALID,0,VALID,19.2773,VALID,52,VALID,0.125411,
2009-02-20, 00:56:00,VALID,916.483,VALID,0,VALID,100,VALID,0,VALID,19.2773,VALID,46,VALID,0.00195313,
2009-02-20, 00:57:00,VALID,916.486,VALID,0,VALID,100,VALID,0.0339617,VALID,19.2706,VALID,57,VALID,0,
2009-02-20, 00:58:00,VALID,916.472,VALID,0,VALID,100,VALID,-0.0169808,VALID,19.277,VALID,46,VALID,0,
2009-02-20, 00:59:00,VALID,916.48,VALID,0,VALID,100,VALID,0.0169808,VALID,19.2743,VALID,31,VALID,0.0988372,
2009-02-20, 01:00:00,VALID,916.476,VALID,0,VALID,100,VALID,-0.0169808,VALID,19.2678,VALID,44,VALID,0,
2009-02-20, 01:01:00,VALID,916.477,VALID,0,VALID,100,VALID,-0.0169808,VALID,19.2873,VALID,48,VALID,0,
2009-02-20, 01:02:00,VALID,916.461,VALID,0,VALID,100,VALID,0.0169808,VALID,19.2903,VALID,48,VALID,0,
2009-02-20, 01:03:00,VALID,916.455,VALID,0,VALID,100,VALID,0,VALID,19.3137,VALID,39,VALID,0,
2009-02-20, 01:04:00,VALID,916.472,VALID,0,VALID,100,VALID,0,VALID,19.31,VALID,21,VALID,0,
2009-02-20, 01:05:00,VALID,916.447,VALID,0,VALID,100,VALID,0,VALID,19.2875,VALID,21,VALID,0,
2009-02-20, 01:06:00,VALID,916.436,VALID,0,VALID,100,VALID,0,VALID,19.2643,VALID,21,VALID,0,
2009-02-20, 01:07:00,VALID,916.425,VALID,0,VALID,100,VALID,0.0169808,VALID,19.2548,VALID,21,VALID,0,
2009-02-20, 01:08:00,VALID,916.408,VALID,0,VALID,100,VALID,-0.0339617,VALID,19.2483,VALID,21,VALID,0,
2009-02-20, 01:09:00,VALID,916.4,VALID,0,VALID,100,VALID,-0.0849042,VALID,19.2518,VALID,21,VALID,0,
2009-02-20, 01:10:00,VALID,916.385,VALID,0,VALID,100,VALID,-0.0339617,VALID,19.2423,VALID,21,VALID,0,
2009-02-20, 01:11:00,VALID,916.362,VALID,0,VALID,100,VALID,-0.0169808,VALID,19.2418,VALID,21,VALID,0,
2009-02-20, 01:12:00,VALID,916.351,VALID,0,VALID,100,VALID,-0.0169808,VALID,19.2256,VALID,21,VALID,0,
2009-02-20, 01:13:00,VALID,916.344,VALID,0,VALID,100,VALID,0,VALID,19.2159,VALID,21,VALID,0,
2009-02-20, 01:14:00,VALID,916.341,VALID,0,VALID,100,VALID,0,VALID,19.2161,VALID,21,VALID,0,
2009-02-20, 01:15:00,VALID,916.336,VALID,0,VALID,100,VALID,0,VALID,19.2224,VALID,21,VALID,0,
2009-02-20, 01:16:00,VALID,916.33,VALID,0,VALID,100,VALID,-0.0169808,VALID,19.2161,VALID,31,VALID,0,
2009-02-20, 01:17:00,VALID,916.329,VALID,0,VALID,100,VALID,0,VALID,19.2064,VALID,65,VALID,0,
2009-02-20, 01:18:00,VALID,916.343,VALID,0,VALID,100,VALID,-0.0169808,VALID,19.1929,VALID,65,VALID,0,
2009-02-20, 01:19:00,VALID,916.343,VALID,0,VALID,100,VALID,0.0169808,VALID,19.1762,VALID,69,VALID,0,
2009-02-20, 01:20:00,VALID,916.352,VALID,0,VALID,100,VALID,-0.0169808,VALID,19.1767,VALID,86,VALID,0,
2009-02-20, 01:21:00,VALID,916.362,VALID,0,VALID,100,VALID,0.0169808,VALID,19.1767,VALID,101,VALID,0,
2009-02-20, 01:22:00,VALID,916.364,VALID,0,VALID,100,VALID,-0.0339617,VALID,19.1899,VALID,103,VALID,0,
2009-02-20, 01:23:00,VALID,916.361,VALID,0,VALID,100,VALID,-0.0849042,VALID,19.1877,VALID,106,VALID,0,
2009-02-20, 01:24:00,VALID,916.367,VALID,0,VALID,100,VALID,-0.101885,VALID,19.1812,VALID,106,VALID,0,
2009-02-20, 01:25:00,VALID,916.363,VALID,0,VALID,100,VALID,-0.118866,VALID,19.1979,VALID,115,VALID,0,
2009-02-20, 01:26:00,VALID,916.367,VALID,0,VALID,100,VALID,-0.118866,VALID,19.2044,VALID,116,VALID,0,
2009-02-20, 01:27:00,VALID,916.367,VALID,0,VALID,100,VALID,-0.152827,VALID,19.2109,VALID,116,VALID,0,
2009-02-20, 01:28:00,VALID,916.388,VALID,0,VALID,100,VALID,-0.118866,VALID,19.2238,VALID,123,VALID,0.0297256,
2009-02-20, 01:29:00,VALID,916.363,VALID,0,VALID,100,VALID,-0.101885,VALID,19.2336,VALID,119,VALID,0,
2009-02-20, 01:30:00,VALID,916.353,VALID,0,VALID,100,VALID,-0.118866,VALID,19.2398,VALID,129,VALID,0,
2009-02-20, 01:31:00,VALID,916.332,VALID,0,VALID,100,VALID,-0.101885,VALID,19.2433,VALID,126,VALID,0,
2009-02-20, 01:32:00,VALID,916.311,VALID,0,VALID,100,VALID,-0.169808,VALID,19.2568,VALID,117,VALID,0,
2009-02-20, 01:33:00,VALID,916.289,VALID,0,VALID,100,VALID,-0.118866,VALID,19.263,VALID,102,VALID,0,
2009-02-20, 01:34:00,VALID,916.283,VALID,0,VALID,100,VALID,-0.101885,VALID,19.2496,VALID,105,VALID,0,
2009-02-20, 01:35:00,VALID,916.251,VALID,0,VALID,100,VALID,-0.101885,VALID,19.2368,VALID,106,VALID,0,
2009-02-20, 01:36:00,VALID,916.227,VALID,0,VALID,100,VALID,-0.118866,VALID,19.2433,VALID,107,VALID,0,
2009-02-20, 01:37:00,VALID,916.199,VALID,0,VALID,100,VALID,-0.101885,VALID,19.2436,VALID,97,VALID,0,
2009-02-20, 01:38:00,VALID,916.183,VALID,0,VALID,100,VALID,-0.0849042,VALID,19.2396,VALID,83,VALID,0,
2009-02-20, 01:39:00,VALID,916.161,VALID,0,VALID,100,VALID,-0.0679233,VALID,19.2328,VALID,83,VALID,0,
2009-02-20, 01:40:00,VALID,916.14,VALID,0,VALID,100,VALID,-0.101885,VALID,19.2336,VALID,97,VALID,0,
2009-02-20, 01:41:00,VALID,916.114,VALID,0,VALID,100,VALID,-0.101885,VALID,19.2273,VALID,105,VALID,0,
2009-02-20, 01:42:00,VALID,916.106,VALID,0,VALID,100,VALID,-0.101885,VALID,19.2169,VALID,113,VALID,0,
2009-02-20, 01:43:00,VALID,916.091,VALID,0,VALID,100,VALID,-0.0849042,VALID,19.2204,VALID,135,VALID,0.0334821,
2009-02-20, 01:44:00,VALID,916.078,VALID,0,VALID,100,VALID,-0.0679233,VALID,19.2266,VALID,150,VALID,0.00190549,
2009-02-20, 01:45:00,VALID,916.061,VALID,0,VALID,100,VALID,-0.0679233,VALID,19.2238,VALID,148,VALID,0,
2009-02-20, 01:46:00,VALID,916.049,VALID,0,VALID,100,VALID,-0.0849042,VALID,19.2206,VALID,148,VALID,0,
2009-02-20, 01:47:00,VALID,916.037,VALID,0,VALID,100,VALID,-0.0679233,VALID,19.2101,VALID,145,VALID,0,
2009-02-20, 01:48:00,VALID,916.041,VALID,0,VALID,100,VALID,-0.0849042,VALID,19.2101,VALID,129,VALID,0,
2009-02-20, 01:49:00,VALID,916.048,VALID,0,VALID,100,VALID,-0.0679233,VALID,19.2139,VALID,60,VALID,0,
2009-02-20, 01:50:00,VALID,916.05,VALID,0,VALID,100,VALID,-0.0339617,VALID,19.2074,VALID,60,VALID,0,
2009-02-20, 01:51:00,VALID,916.049,VALID,0,VALID,100,VALID,-0.0849042,VALID,19.1942,VALID,60,VALID,0,
2009-02-20, 01:52:00,VALID,916.073,VALID,0,VALID,100,VALID,-0.0509425,VALID,19.2002,VALID,60,VALID,0,
2009-02-20, 01:53:00,VALID,916.086,VALID,0,VALID,100,VALID,0,VALID,19.2122,VALID,60,VALID,0,
2009-02-20, 01:54:01,VALID,916.09,VALID,0,VALID,100,VALID,-0.0169808,VALID,19.2319,VALID,55,VALID,0,
2009-02-20, 01:55:00,VALID,916.096,VALID,0,VALID,100,VALID,0.0339617,VALID,19.2381,VALID,28,VALID,0,
2009-02-20, 01:56:00,VALID,916.095,VALID,0,VALID,100,VALID,0.0509425,VALID,19.2416,VALID,11,VALID,0,
2009-02-20, 01:57:00,VALID,916.082,VALID,0,VALID,100,VALID,0,VALID,19.2453,VALID,11,VALID,0,
2009-02-20, 01:58:00,VALID,916.063,VALID,0,VALID,100,VALID,0.0169808,VALID,19.2449,VALID,11,VALID,0,
2009-02-20, 01:59:00,VALID,916.04,VALID,0,VALID,100,VALID,0,VALID,19.2483,VALID,11,VALID,0,
2009-02-20, 02:00:00,VALID,916.018,VALID,0,VALID,100,VALID,0.0169808,VALID,19.2221,VALID,11,VALID,0,
2009-02-20, 02:01:00,VALID,915.997,VALID,0,VALID,100,VALID,0,VALID,19.1895,VALID,11,VALID,0,
2009-02-20, 02:02:00,VALID,915.977,VALID,0,VALID,100,VALID,0,VALID,19.1964,VALID,11,VALID,0,
2009-02-20, 02:03:00,VALID,915.968,VALID,0,VALID,100,VALID,0.0169808,VALID,19.1932,VALID,288,VALID,0.0383358,
2009-02-20, 02:04:01,VALID,915.948,VALID,0,VALID,100,VALID,0,VALID,19.1959,VALID,243,VALID,0.0259811,
2009-02-20, 02:05:01,VALID,915.953,VALID,0,VALID,100,VALID,0,VALID,19.1929,VALID,241,VALID,0.0280107,
2009-02-20, 02:06:00,VALID,915.941,VALID,0,VALID,100,VALID,0,VALID,19.177,VALID,248,VALID,0,
2009-02-20, 02:07:00,VALID,915.949,VALID,0,VALID,100,VALID,0.0169808,VALID,19.1837,VALID,241,VALID,0,
2009-02-20, 02:08:00,VALID,915.955,VALID,0,VALID,100,VALID,-0.0169808,VALID,19.1802,VALID,234,VALID,0,
2009-02-20, 02:09:00,VALID,915.958,VALID,0,VALID,100,VALID,0,VALID,19.1665,VALID,223,VALID,0,
2009-02-20, 02:10:00,VALID,915.985,VALID,0,VALID,100,VALID,-0.0169808,VALID,19.1705,VALID,172,VALID,0.00558036,
2009-02-20, 02:11:01,VALID,916.001,VALID,0,VALID,100,VALID,0,VALID,19.1637,VALID,171,VALID,0.0100446,
2009-02-20, 02:12:00,VALID,916.012,VALID,0,VALID,100,VALID,0,VALID,19.151,VALID,146,VALID,0,
2009-02-20, 02:13:00,VALID,916.034,VALID,0,VALID,100,VALID,0,VALID,19.1343,VALID,147,VALID,0,
2009-02-20, 02:14:00,VALID,916.044,VALID,0,VALID,100,VALID,0.0339617,VALID,19.138,VALID,166,VALID,0,
2009-02-20, 02:15:00,VALID,916.031,VALID,0,VALID,100,VALID,0.0509425,VALID,19.1243,VALID,154,VALID,0,
2009-02-20, 02:16:00,VALID,916.027,VALID,0,VALID,100,VALID,0.0509425,VALID,19.1179,VALID,165,VALID,0.0388927,
2009-02-20, 02:17:00,VALID,916.004,VALID,0,VALID,100,VALID,0.0509425,VALID,19.1181,VALID,171,VALID,0,
2009-02-20, 02:18:00,VALID,916.01,VALID,0,VALID,100,VALID,0,VALID,19.1209,VALID,160,VALID,0,
2009-02-20, 02:19:00,VALID,915.998,VALID,0,VALID,100,VALID,0.0339617,VALID,19.1413,VALID,130,VALID,0,
2009-02-20, 02:20:00,VALID,915.988,VALID,0,VALID,100,VALID,0.0509425,VALID,19.1016,VALID,101,VALID,0,
2009-02-20, 02:21:01,VALID,915.984,VALID,0,VALID,100,VALID,0.0339617,VALID,19.0854,VALID,101,VALID,0,
2009-02-20, 02:22:00,VALID,915.984,VALID,0,VALID,100,VALID,0,VALID,19.0889,VALID,101,VALID,0,
2009-02-20, 02:23:01,VALID,915.982,VALID,0,VALID,100,VALID,-0.0849042,VALID,19.0873,VALID,101,VALID,0,
2009-02-20, 02:24:00,VALID,915.97,VALID,0,VALID,100,VALID,-0.101885,VALID,19.0938,VALID,101,VALID,0,
2009-02-20, 02:25:00,VALID,915.962,VALID,0,VALID,100,VALID,-0.0849042,VALID,19.1138,VALID,101,VALID,0,
2009-02-20, 02:26:01,VALID,915.94,VALID,0,VALID,100,VALID,-0.101885,VALID,19.1198,VALID,101,VALID,0,
2009-02-20, 02:27:00,VALID,915.923,VALID,0,VALID,100,VALID,-0.101885,VALID,19.1128,VALID,101,VALID,0,
2009-02-20, 02:28:01,VALID,915.904,VALID,0,VALID,100,VALID,-0.0679233,VALID,19.1293,VALID,101,VALID,0,
2009-02-20, 02:29:01,VALID,915.89,VALID,0,VALID,100,VALID,-0.0679233,VALID,19.1355,VALID,101,VALID,0,
2009-02-20, 02:30:01,VALID,915.885,VALID,0,VALID,100,VALID,-0.0509425,VALID,19.1515,VALID,101,VALID,0,
2009-02-20, 02:31:00,VALID,915.892,VALID,0,VALID,100,VALID,-0.0679233,VALID,19.1582,VALID,101,VALID,0,
2009-02-20, 02:32:00,VALID,915.885,VALID,0,VALID,100,VALID,-0.0849042,VALID,19.1415,VALID,101,VALID,0,
2009-02-20, 02:33:00,VALID,915.897,VALID,0,VALID,100,VALID,-0.0509425,VALID,19.1457,VALID,101,VALID,0,
2009-02-20, 02:34:00,VALID,915.895,VALID,0,VALID,100,VALID,-0.0679233,VALID,19.1323,VALID,101,VALID,0,
2009-02-20, 02:35:01,VALID,915.886,VALID,0,VALID,100,VALID,-0.0679233,VALID,19.1223,VALID,101,VALID,0,
2009-02-20, 02:36:00,VALID,915.876,VALID,0,VALID,100,VALID,-0.0169808,VALID,19.1255,VALID,101,VALID,0,
2009-02-20, 02:37:01,VALID,915.872,VALID,0,VALID,100,VALID,-0.0339617,VALID,19.1191,VALID,101,VALID,0,
2009-02-20, 02:38:00,VALID,915.857,VALID,0,VALID,100,VALID,-0.0339617,VALID,19.129,VALID,101,VALID,0,
2009-02-20, 02:39:00,VALID,915.859,VALID,0,VALID,100,VALID,-0.0509425,VALID,19.142,VALID,101,VALID,0,
2009-02-20, 02:40:00,VALID,915.851,VALID,0,VALID,100,VALID,-0.101885,VALID,19.1161,VALID,101,VALID,0,
2009-02-20, 02:41:00,VALID,915.848,VALID,0,VALID,100,VALID,-0.0849042,VALID,19.0933,VALID,101,VALID,0,
2009-02-20, 02:42:00,VALID,915.851,VALID,0,VALID,100,VALID,-0.0169808,VALID,19.0801,VALID,101,VALID,0,
2009-02-20, 02:43:01,VALID,915.839,VALID,0,VALID,100,VALID,-0.0679233,VALID,19.0644,VALID,103,VALID,0,
2009-02-20, 02:44:00,VALID,915.834,VALID,0,VALID,100,VALID,-0.0849042,VALID,19.0611,VALID,136,VALID,0,
2009-02-20, 02:45:01,VALID,915.835,VALID,0,VALID,100,VALID,-0.0339617,VALID,19.0639,VALID,148,VALID,0,
2009-02-20, 02:46:01,VALID,915.833,VALID,0,VALID,100,VALID,-0.0849042,VALID,19.0741,VALID,154,VALID,0,
2009-02-20, 02:47:01,VALID,915.835,VALID,0,VALID,100,VALID,-0.101885,VALID,19.0836,VALID,154,VALID,0,
2009-02-20, 02:48:01,VALID,915.827,VALID,0,VALID,100,VALID,-0.0509425,VALID,19.0699,VALID,145,VALID,0,
2009-02-20, 02:49:00,VALID,915.832,VALID,0,VALID,100,VALID,-0.0679233,VALID,19.0704,VALID,152,VALID,0,
2009-02-20, 02:50:01,VALID,915.829,VALID,0,VALID,100,VALID,-0.0679233,VALID,19.0539,VALID,157,VALID,0.0279797,
2009-02-20, 02:51:01,VALID,915.839,VALID,0,VALID,100,VALID,-0.0679233,VALID,19.0642,VALID,148,VALID,0,
2009-02-20, 02:52:01,VALID,915.854,VALID,0,VALID,100,VALID,-0.0169808,VALID,19.0796,VALID,146,VALID,0.148438,
2009-02-20, 02:53:01,VALID,915.851,VALID,0,VALID,100,VALID,-0.0169808,VALID,19.0766,VALID,118,VALID,0.148628,
2009-02-20, 02:54:01,VALID,915.855,VALID,0,VALID,100,VALID,-0.0169808,VALID,19.0604,VALID,101,VALID,0,
2009-02-20, 02:55:01,VALID,915.847,VALID,0,VALID,100,VALID,-0.0509425,VALID,19.0577,VALID,111,VALID,0.00111607,
2009-02-20, 02:56:01,VALID,915.851,VALID,0,VALID,100,VALID,-0.0679233,VALID,19.0474,VALID,124,VALID,0.0012429,
2009-02-20, 02:57:00,VALID,915.846,VALID,0,VALID,100,VALID,-0.0509425,VALID,19.0637,VALID,136,VALID,0,
2009-02-20, 02:58:00,VALID,915.836,VALID,0,VALID,100,VALID,-0.0339617,VALID,19.0734,VALID,131,VALID,0,
2009-02-20, 02:59:00,VALID,915.832,VALID,0,VALID,100,VALID,-0.0509425,VALID,19.0702,VALID,130,VALID,0.00130208,
2009-02-20, 03:00:00,VALID,915.833,VALID,0,VALID,100,VALID,-0.0849042,VALID,19.0702,VALID,127,VALID,0.0525915,
2009-02-20, 03:01:00,VALID,915.828,VALID,0,VALID,100,VALID,-0.0509425,VALID,19.0634,VALID,119,VALID,0.300164,
2009-02-20, 03:02:00,VALID,915.842,VALID,0,VALID,100,VALID,-0.0509425,VALID,19.0539,VALID,132,VALID,0.556996,
2009-02-20, 03:03:00,VALID,915.843,VALID,0,VALID,100,VALID,-0.0169808,VALID,19.0509,VALID,126,VALID,0.38058,
2009-02-20, 03:04:00,VALID,915.832,VALID,0,VALID,100,VALID,-0.0339617,VALID,19.044,VALID,105,VALID,0.153582,
2009-02-20, 03:05:00,VALID,915.812,VALID,0,VALID,100,VALID,-0.0339617,VALID,19.0407,VALID,110,VALID,0.23947,
2009-02-20, 03:06:00,VALID,915.81,VALID,0,VALID,100,VALID,-0.0509425,VALID,19.0414,VALID,117,VALID,0.231105,
2009-02-20, 03:07:00,VALID,915.784,VALID,0,VALID,100,VALID,-0.0339617,VALID,19.0479,VALID,135,VALID,0,
2009-02-20, 03:08:00,VALID,915.759,VALID,0,VALID,100,VALID,-0.0509425,VALID,19.0512,VALID,122,VALID,0,
2009-02-20, 03:09:00,VALID,915.746,VALID,0,VALID,100,VALID,-0.0849042,VALID,19.0507,VALID,113,VALID,0,
2009-02-20, 03:10:00,VALID,915.709,VALID,0,VALID,100,VALID,-0.0509425,VALID,19.0542,VALID,152,VALID,0.0941406,
2009-02-20, 03:11:00,VALID,915.68,VALID,0,VALID,100,VALID,-0.0509425,VALID,19.0741,VALID,151,VALID,0.0703125,
2009-02-20, 03:12:00,VALID,915.659,VALID,0,VALID,100,VALID,-0.0679233,VALID,19.0734,VALID,146,VALID,0.181548,
2009-02-20, 03:13:00,VALID,915.65,VALID,0,VALID,100,VALID,-0.0339617,VALID,19.0804,VALID,156,VALID,0.0136265,
2009-02-20, 03:14:00,VALID,915.622,VALID,0,VALID,100,VALID,-0.0339617,VALID,19.0864,VALID,170,VALID,0.432351,
2009-02-20, 03:15:00,VALID,915.615,VALID,0,VALID,100,VALID,-0.0509425,VALID,19.0959,VALID,173,VALID,0.365141,
2009-02-20, 03:16:00,VALID,915.594,VALID,0,VALID,100,VALID,-0.0169808,VALID,19.0994,VALID,163,VALID,0.318824,
2009-02-20, 03:17:00,VALID,915.589,VALID,0,VALID,100,VALID,-0.0339617,VALID,19.1061,VALID,167,VALID,0.137429,
2009-02-20, 03:18:00,VALID,915.575,VALID,0,VALID,100,VALID,-0.0339617,VALID,19.0961,VALID,176,VALID,0.396949,
2009-02-20, 03:19:00,VALID,915.566,VALID,0,VALID,100,VALID,-0.0679233,VALID,19.0994,VALID,164,VALID,0.868253,
2009-02-20, 03:20:00,VALID,915.567,VALID,0,VALID,100,VALID,-0.0679233,VALID,19.0994,VALID,167,VALID,0.663336,
2009-02-20, 03:21:00,VALID,915.549,VALID,0,VALID,100,VALID,-0.0849042,VALID,19.0933,VALID,152,VALID,0.419567,
2009-02-20, 03:22:00,VALID,915.548,VALID,0,VALID,100,VALID,-0.0509425,VALID,19.0899,VALID,146,VALID,0.696646,
2009-02-20, 03:23:00,VALID,915.549,VALID,0,VALID,100,VALID,-0.0679233,VALID,19.0899,VALID,144,VALID,0.449673,
2009-02-20, 03:24:00,VALID,915.544,VALID,0,VALID,100,VALID,-0.0509425,VALID,19.0933,VALID,159,VALID,0.593205,
2009-02-20, 03:25:00,VALID,915.553,VALID,0,VALID,100,VALID,-0.0509425,VALID,19.0964,VALID,151,VALID,0.54581,
2009-02-20, 03:26:00,VALID,915.548,VALID,0,VALID,100,VALID,-0.0849042,VALID,19.0964,VALID,149,VALID,0.394245,
2009-02-20, 03:27:00,VALID,915.558,VALID,0,VALID,100,VALID,-0.0339617,VALID,19.1026,VALID,145,VALID,0.424132,
2009-02-20, 03:28:00,VALID,915.547,VALID,0,VALID,100,VALID,-0.101885,VALID,19.1031,VALID,164,VALID,0.848958,
2009-02-20, 03:29:00,VALID,915.532,VALID,0,VALID,100,VALID,-0.118866,VALID,19.1068,VALID,164,VALID,1.01289,
2009-02-20, 03:30:00,VALID,915.532,VALID,0,VALID,100,VALID,-0.0509425,VALID,19.1131,VALID,175,VALID,0.227604,
2009-02-20, 03:31:00,VALID,915.513,VALID,0,VALID,100,VALID,-0.0339617,VALID,19.0959,VALID,158,VALID,0.177431,
2009-02-20, 03:32:00,VALID,915.517,VALID,0,VALID,100,VALID,-0.0679233,VALID,19.1158,VALID,157,VALID,0.10747,
2009-02-20, 03:33:00,VALID,915.514,VALID,0,VALID,100,VALID,-0.101885,VALID,19.1126,VALID,150,VALID,0.42294,
2009-02-20, 03:34:00,VALID,915.504,VALID,0,VALID,100,VALID,-0.0849042,VALID,19.1093,VALID,148,VALID,0.450267,
2009-02-20, 03:35:00,VALID,915.513,VALID,0,VALID,100,VALID,-0.0849042,VALID,19.1133,VALID,149,VALID,0.520461,
2009-02-20, 03:36:00,VALID,915.529,VALID,0,VALID,100,VALID,-0.101885,VALID,19.1263,VALID,149,VALID,0.294271,
2009-02-20, 03:37:00,VALID,915.543,VALID,0,VALID,100,VALID,-0.0509425,VALID,19.1258,VALID,140,VALID,0.35061,
2009-02-20, 03:38:00,VALID,915.586,VALID,0,VALID,100,VALID,-0.0169808,VALID,19.1281,VALID,151,VALID,0.283984,
2009-02-20, 03:39:00,VALID,915.623,VALID,0,VALID,100,VALID,0.0169808,VALID,19.1311,VALID,137,VALID,0.589311,
2009-02-20, 03:40:00,VALID,915.653,VALID,0,VALID,100,VALID,0.0169808,VALID,19.1241,VALID,124,VALID,0.619978,
2009-02-20, 03:41:00,VALID,915.669,VALID,0,VALID,100,VALID,0.0509425,VALID,19.1111,VALID,106,VALID,0.730741,
2009-02-20, 03:42:00,VALID,915.712,VALID,0,VALID,100,VALID,0,VALID,19.1011,VALID,106,VALID,0.411204,
2009-02-20, 03:43:00,VALID,915.723,VALID,0,VALID,100,VALID,0.0169808,VALID,19.0984,VALID,107,VALID,0.492361,
2009-02-20, 03:44:00,VALID,915.738,VALID,0,VALID,100,VALID,0.0509425,VALID,19.1051,VALID,124,VALID,0.618056,
2009-02-20, 03:45:00,VALID,915.735,VALID,0,VALID,100,VALID,0.0339617,VALID,19.1019,VALID,142,VALID,0.645349,
2009-02-20, 03:46:00,VALID,915.72,VALID,0,VALID,100,VALID,-0.0169808,VALID,19.0989,VALID,141,VALID,0.953299,
2009-02-20, 03:47:00,VALID,915.717,VALID,0,VALID,100,VALID,0.0339617,VALID,19.0979,VALID,161,VALID,0.433594,